Location: Finkenbach
(49.5340°N, 8.9188°E)
Time: 21:36:15
(UTC+00:00)

Cosmos 2344 - Pass Details

Date: 17 June 2025
Orbit: 1199 x 3043 km, 63.3° (Epoch: 16 July)

Event Time Altitude Azimuth Distance (km) Brightness Sun altitude
Rises 21:00:22 0° 315° (NW) 4,185 8.2 -10.3°
Reaches altitude 10° 21:02:55 10° 318° (NW) 3,294 7.3 -10.5°
Maximum altitude 21:10:45 72° 43° (NE) 1,582 4.1 -11.2°
Enters shadow 21:21:14 10° 128° (SE) 4,338 5.8 -12.0°
